sat.trackr.live / text

‹ back to catalog

STARLINK-3793

NORAD 52380 · 2022-045BB

PAYLOAD ACTIVE UNKNOWN

§ Identity

Operator
Country
US
Launch date
2022-04-29
Launch site
AFETR
Launch vehicle
Mass (kg)
RCS (m²)

Purposes: comms

External: N2YO · Heavens-Above · Gunter

§ Orbital elements

Epoch: 2026-09-19T23:01:29.161056Z

Period
93.85 min
Inclination
53.1617°
Eccentricity
0.0000871
Mean motion
15.34362957 rev/d
Perigee alt
462.2 km
Apogee alt
463.4 km
Semi-major
6,841.0 km
B*
-6.9716e-5
RAAN
11.8945°
Arg perigee
91.4160°
Mean anomaly
268.6942°
Rev number
24,559

§ Raw data

STARLINK-37931 52380U 22045BB  26262.95936529 -.00002728  00000+0 -69716-4 0  99902 52380  53.1617  11.8945 0000871  91.4160 268.6942 15.34362957245595

JSON: /api/v1/satellites/52380 · /tle

For live sub-satellite position, see the globe view (requires WebGL).

§ Visibility from observer

Set your observer location to see the next 7 days of passes ≥ 10°. The values pass through the URL so the page stays shareable.

No JS? Fill the form by hand. The geolocation button needs JavaScript.